Regional Weather Roundup
Issued by NWS

Home | Current Version | Previous Version | Text Only | Print | Product List | Glossary On
Versions: 1 2 3 4 5 6 7 8 9 10 11 12 13 14 15 16 17 18 19 20 21 22 23 24 25 26 27 28 29 30 31 32 33 34 35 36 37 38 39 40 41 42 43 44 45 46 47 48 49 50
000
ASUS43 KTOP 231359
RWRKS

WEATHER ROUNDUP FOR KANSAS
NATIONAL WEATHER SERVICE GOODLAND KS
800 AM CST TUE JAN 23 2018

NOTE:  "FAIR" INDICATES FEW OR NO CLOUDS BELOW 12,000 FEET WITH NO
SIGNIFICANT WEATHER AND/OR OBSTRUCTIONS TO VISIBILITY.

KSZ001>006-013>018-027>032-041>047-231500-
NORTHWEST KANSAS

CITY           SKY/WX    TMP DP  RH WIND       PRES   REMARKS
GOODLAND       CLEAR     16  10  77 W14       30.16R WCI   2
HAYS           CLOUDY    20  14  77 NW10      30.18R WCI   9
HILL CITY      CLEAR     21  14  74 W9        30.17R
RUSSELL        CLOUDY    20  15  81 W9        30.16R
$$

KSZ061>065-074>080-084>089-231500-
SOUTHWEST KANSAS

CITY           SKY/WX    TMP DP  RH WIND       PRES   REMARKS
DODGE CITY     CLEAR     23  12  62 NW14      30.20R WCI  11
GARDEN CITY    CLEAR     16  10  77 NW10      30.20R WCI   4
LIBERAL        CLEAR     16   7  67 W9        30.23R
$$

KSZ066>073-081>083-090>101-231500-
SOUTHEAST KANSAS

CITY           SKY/WX    TMP DP  RH WIND       PRES   REMARKS
COFFEYVILLE    CLEAR     27  22  81 NW9       30.19R
HUTCHINSON     CLEAR     19  15  84 W7        30.17R
MEDICINE LODGE   N/A     25  15  66 NW5       30.21R
NEWTON         CLEAR     21  18  88 W7        30.17R
PARSONS        CLOUDY    28  24  85 W8        30.19R
WICHITA INTL   CLEAR     22  18  85 NW7       30.18R
WICHITA JABRA  CLEAR     23  20  88 W10       30.17R WCI  12
WICHITA MCCONL CLEAR     25  18  75 NW9       30.17R
WINFIELD       CLEAR     21  18  88 W8        30.22R
$$

KSZ007>012-019>026-033>040-048>060-102>105-231500-
NORTHEAST KANSAS

CITY           SKY/WX    TMP DP  RH WIND       PRES   REMARKS
CONCORDIA      CLEAR     15  13  91 NW5       30.14R
EMPORIA        CLOUDY    25  21  85 NW10      30.15R WCI  15
LAWRENCE       CLOUDY    28  24  85 NW17      30.14S WCI  16
MANHATTAN      CLOUDY    26  21  81 VRB6      30.17R
OLATHE IND     CLOUDY    27  24  89 NW16G24   30.12R WCI  15
OLATHE EXE     CLOUDY    27  24  89 NW13      30.11R WCI  16
SALINA         CLEAR     21  18  88 W8        30.18R
TOPEKA BILLARD CLOUDY    26  22  84 W12       30.16R WCI  16
TOPEKA FORBES  CLOUDY    26  22  84 NW13      30.13R WCI  15
$$




USA.gov is the U.S. government's official web portal to all federal, state and local government web resources and services.